N7JMV Weather Reports


Display with metric or nautical units.
time (UTC)temp
F
wind
direction
speed
MPH
gust
MPH
rain 1hr
in
rain 24hr
in
rain mn
in
humidity
%
barometer
mb
20260505051524 60 151 0.0 0.0 0.00 0.00 0.00 68 1011.3
20260505051009 60 151 0.0 0.0 0.00 0.00 0.00 68 1011.3
20260505050513 61 151 0.0 0.0 0.00 0.00 0.00 69 1011.3
20260505041520 64 151 0.0 0.0 0.00 0.00 0.00 62 1010.8
20260505041004 64 151 0.0 0.0 0.00 0.00 0.00 61 1010.8
20260505040503 65 151 0.0 0.0 0.00 0.00 0.00 61 1010.6
20260505040002 66 151 0.0 0.0 0.00 0.00 0.00 59 1010.6
20260505035505 66 151 0.0 2.0 0.00 0.00 0.00 56 1010.5
20260505035002 67 152 0.0 2.0 0.00 0.00 0.00 55 1010.4
20260505034507 67 217 0.0 3.0 0.00 0.00 0.00 54 1010.4
20260505034003 68 231 0.0 3.0 0.00 0.00 0.00 53 1010.3
20260505033503 68 212 0.0 2.0 0.00 0.00 0.00 52 1010.2
20260505033017 69 176 1.0 4.0 0.00 0.00 0.00 51 1010.2
20260505032507 69 211 0.0 4.0 0.00 0.00 0.00 49 1010.2
20260505032009 70 243 2.0 6.0 0.00 0.00 0.00 49 1010.1
20260505031514 71 270 3.0 6.0 0.00 0.00 0.00 47 1010.1
20260505031008 71 169 0.0 4.0 0.00 0.00 0.00 47 1010.0
20260505030506 72 233 1.0 4.0 0.00 0.00 0.00 46 1009.9
20260505030027 73 198 2.0 4.0 0.00 0.00 0.00 46 1009.9
20260505025506 73 139 2.0 4.0 0.00 0.00 0.00 45 1009.8
20260505025005 74 191 2.0 5.0 0.00 0.00 0.00 44 1009.8
20260505024505 75 235 2.0 5.0 0.00 0.00 0.00 43 1009.7
20260505024006 76 211 3.0 5.0 0.00 0.00 0.00 43 1009.6
20260505023502 76 224 1.0 3.0 0.00 0.00 0.00 42 1009.6
20260505023010 76 111 1.0 5.0 0.00 0.00 0.00 41 1009.6
20260505022503 77 224 3.0 5.0 0.00 0.00 0.00 40 1009.5
20260505022003 77 211 3.0 5.0 0.00 0.00 0.00 40 1009.4
20260505021512 77 210 2.0 5.0 0.00 0.00 0.00 40 1009.4
20260505021003 77 169 3.0 6.0 0.00 0.00 0.00 40 1009.4
20260505020503 78 155 3.0 6.0 0.00 0.00 0.00 40 1009.5
20260505020019 78 175 2.0 7.0 0.00 0.00 0.00 40 1009.5
20260505015506 79 93 3.0 7.0 0.00 0.00 0.00 39 1009.5
20260505015010 80 203 2.0 5.0 0.00 0.00 0.00 36 1009.5
20260505014523 79 173 1.0 5.0 0.00 0.00 0.00 34 1009.5
20260505014005 79 150 0.0 6.0 0.00 0.00 0.00 33 1009.5
20260505013506 79 68 1.0 6.0 0.00 0.00 0.00 34 1009.5
20260505013006 80 132 2.0 5.0 0.00 0.00 0.00 32 1009.6
20260505012504 80 232 1.0 8.0 0.00 0.00 0.00 34 1009.5
20260505012004 80 225 3.0 8.0 0.00 0.00 0.00 34 1009.7
20260505011508 80 206 2.0 8.0 0.00 0.00 0.00 32 1009.6
20260505011005 80 169 5.0 8.0 0.00 0.00 0.00 34 1009.6
20260505010503 80 151 2.0 7.0 0.00 0.00 0.00 33 1009.6
20260505010011 80 113 3.0 7.0 0.00 0.00 0.00 32 1009.7
20260505005507 80 153 4.0 9.0 0.00 0.00 0.00 33 1009.7
20260505005006 80 185 4.0 9.0 0.00 0.00 0.00 32 1009.7
20260505004535 80 139 2.0 7.0 0.00 0.00 0.00 33 1009.6
20260505004007 80 129 3.0 7.0 0.00 0.00 0.00 33 1009.6
20260505003510 80 135 3.0 9.0 0.00 0.00 0.00 32 1009.7
20260505003021 80 213 5.0 10.0 0.00 0.00 0.00 32 1009.7
20260505002507 80 162 4.0 10.0 0.00 0.00 0.00 33 1009.7
20260505002010 81 157 3.0 10.0 0.00 0.00 0.00 32 1009.7
20260505001528 81 117 2.0 8.0 0.00 0.00 0.00 33 1009.8
20260505001002 81 165 4.0 8.0 0.00 0.00 0.00 33 1009.7
20260505000503 81 81 3.0 8.0 0.00 0.00 0.00 35 1009.7
20260505000014 82 131 1.0 7.0 0.00 0.00 0.00 35 1009.8
20260504235504 83 151 4.0 7.0 0.00 0.00 0.00 34 1009.8
20260504235004 83 28 1.0 5.0 0.00 0.00 0.00 35 1009.8
20260504234525 82 108 1.0 5.0 0.00 0.00 0.00 34 1009.8
20260504234005 82 146 0.0 5.0 0.00 0.00 0.00 35 1009.8
20260504233505 82 144 2.0 6.0 0.00 0.00 0.00 35 1009.9
20260504233018 82 105 2.0 6.0 0.00 0.00 0.00 35 1009.9
20260504232507 83 221 1.0 4.0 0.00 0.00 0.00 34 1009.9
20260504232008 83 161 1.0 4.0 0.00 0.00 0.00 34 1009.9
20260504231537 83 244 0.0 5.0 0.00 0.00 0.00 35 1009.9
20260504231008 83 9 2.0 5.0 0.00 0.00 0.00 35 1009.8
20260504230507 83 30 1.0 3.0 0.00 0.00 0.00 35 1009.8
20260504230027 83 234 0.0 3.0 0.00 0.00 0.00 36 1009.8
20260504225518 83 39 0.0 3.0 0.00 0.00 0.00 36 1009.9
20260504225004 82 97 1.0 3.0 0.00 0.00 0.00 35 1010.0
20260504224511 83 54 1.0 5.0 0.00 0.00 0.00 34 1010.0
20260504224003 84 115 0.0 5.0 0.00 0.00 0.00 35 1010.0
20260504223504 83 195 0.0 4.0 0.00 0.00 0.00 35 1010.0
20260504223014 82 86 2.0 4.0 0.00 0.00 0.00 35 1010.0
20260504222505 83 25 1.0 4.0 0.00 0.00 0.00 34 1010.1
20260504222007 83 199 1.0 6.0 0.00 0.00 0.00 34 1010.2
20260504221518 82 139 1.0 6.0 0.00 0.00 0.00 35 1010.3
20260504221009 82 203 0.0 5.0 0.00 0.00 0.00 35 1010.3
20260504220509 83 99 1.0 4.0 0.00 0.00 0.00 34 1010.4
20260504220026 83 359 1.0 3.0 0.00 0.00 0.00 34 1010.4
20260504215507 82 64 0.0 4.0 0.00 0.00 0.00 33 1010.4
20260504215015 82 53 2.0 4.0 0.00 0.00 0.00 32 1010.4
20260504214534 82 27 0.0 6.0 0.00 0.00 0.00 33 1010.5
20260504214007 82 206 2.0 6.0 0.00 0.00 0.00 33 1010.6
20260504213514 82 153 1.0 4.0 0.00 0.00 0.00 30 1010.5
20260504213030 82 134 1.0 4.0 0.00 0.00 0.00 31 1010.6
20260504212507 82 103 0.0 5.0 0.00 0.00 0.00 31 1010.6
20260504212008 82 84 1.0 6.0 0.00 0.00 0.00 30 1010.6
20260504211516 82 62 1.0 6.0 0.00 0.00 0.00 29 1010.6
20260504211006 83 181 1.0 5.0 0.00 0.00 0.00 29 1010.7
20260504210507 83 21 1.0 5.0 0.00 0.00 0.00 28 1010.6
20260504210022 82 137 1.0 3.0 0.00 0.00 0.00 30 1010.7
20260504205507 81 262 1.0 7.0 0.00 0.00 0.00 29 1010.7
20260504205008 82 105 1.0 7.0 0.00 0.00 0.00 29 1010.7
20260504204551 82 167 1.0 4.0 0.00 0.00 0.00 31 1010.7
20260504204010 81 78 1.0 4.0 0.00 0.00 0.00 32 1010.8
20260504203513 82 160 1.0 2.0 0.00 0.00 0.00 33 1010.7
20260504203028 82 4 0.0 4.0 0.00 0.00 0.00 33 1010.7
20260504202509 81 93 1.0 6.0 0.00 0.00 0.00 33 1010.8
20260504202014 81 193 4.0 6.0 0.00 0.00 0.00 33 1010.7
20260504201527 82 128 0.0 2.0 0.00 0.00 0.00 36 1010.7
20260504201011 82 148 1.0 4.0 0.00 0.00 0.00 33 1010.8
20260504200503 82 252 0.0 4.0 0.00 0.00 0.00 34 1010.9
20260504200023 83 17 1.0 2.0 0.00 0.00 0.00 34 1010.9
20260504195509 82 146 0.0 1.0 0.00 0.00 0.00 37 1010.8
20260504195010 81 36 0.0 7.0 0.00 0.00 0.00 35 1010.8
20260504194522 80 142 1.0 7.0 0.00 0.00 0.00 34 1010.8
20260504194006 80 146 1.0 5.0 0.00 0.00 0.00 35 1010.8
20260504193506 79 77 1.0 5.0 0.00 0.00 0.00 36 1010.8
20260504193009 78 217 1.0 8.0 0.00 0.00 0.00 38 1010.8
20260504192458 77 128 4.0 8.0 0.00 0.00 0.00 36 1010.9
20260504192000 77 116 3.0 7.0 0.00 0.00 0.00 36 1011.0
20260504191502 77 155 2.0 7.0 0.00 0.00 0.00 39 1011.0
20260504191002 76 130 2.0 7.0 0.00 0.00 0.00 38 1011.1
20260504190502 76 181 4.0 7.0 0.00 0.00 0.00 39 1011.0
20260504190007 76 195 3.0 7.0 0.00 0.00 0.00 39 1011.1
20260504185502 76 159 3.0 10.0 0.00 0.00 0.00 39 1011.1
20260504185002 75 200 4.0 10.0 0.00 0.00 0.00 38 1011.2
20260504184504 75 118 3.0 10.0 0.00 0.00 0.00 38 1011.3
20260504184004 76 156 3.0 8.0 0.00 0.00 0.00 39 1011.3
20260504183502 75 169 3.0 8.0 0.00 0.00 0.00 40 1011.3
20260504183003 75 187 2.0 10.0 0.00 0.00 0.00 39 1011.3
20260504182501 75 178 4.0 10.0 0.00 0.00 0.00 39 1011.3
20260504182002 75 198 4.0 8.0 0.00 0.00 0.00 39 1011.3
20260504181503 76 153 2.0 6.0 0.00 0.00 0.00 39 1011.3
20260504181002 76 138 1.0 4.0 0.00 0.00 0.00 42 1011.2
20260504180504 76 158 0.0 2.0 0.00 0.00 0.00 44 1011.3
20260504180004 75 222 0.0 5.0 0.00 0.00 0.00 45 1011.2
20260504175502 74 228 2.0 5.0 0.00 0.00 0.00 45 1011.2
20260504175003 74 205 0.0 3.0 0.00 0.00 0.00 47 1011.3
20260504174503 74 316 1.0 3.0 0.00 0.00 0.00 46 1011.2
20260504174005 75 333 0.0 3.0 0.00 0.00 0.00 45 1011.2
20260504173502 74 152 0.0 6.0 0.00 0.00 0.00 48 1011.3
20260504173002 73 147 0.0 6.0 0.00 0.00 0.00 49 1011.3
20260504172502 73 143 2.0 6.0 0.00 0.00 0.00 48 1011.3
20260504172002 72 124 0.0 1.0 0.00 0.00 0.00 49 1011.3
20260504171507 72 351 0.0 1.0 0.00 0.00 0.00 52 1011.3
20260504171005 72 7 0.0 2.0 0.00 0.00 0.00 50 1011.3
20260504170502 71 175 0.0 4.0 0.00 0.00 0.00 50 1011.3
20260504151004 53 198 0.0 0.0 0.00 0.00 0.00 86 1010.9
20260504150503 53 198 0.0 0.0 0.00 0.00 0.00 87 1010.9
20260504141002 49 198 0.0 0.0 0.00 0.00 0.00 90 1010.7
20260504140502 49 198 0.0 0.0 0.00 0.00 0.00 90 1010.5
20260504130503 47 198 0.0 0.0 0.00 0.00 0.00 88 1010.1
20260504110502 49 198 0.0 0.0 0.00 0.00 0.00 88 1009.9
20260504100502 50 198 0.0 0.0 0.00 0.00 0.00 86 1009.6
20260504082003 51 198 0.0 0.0 0.00 0.00 0.00 83 1009.8
20260504081524 51 198 0.0 0.0 0.00 0.00 0.00 83 1009.8
20260504081007 52 198 0.0 0.0 0.00 0.00 0.00 82 1009.8
20260504080503 52 198 0.0 0.0 0.00 0.00 0.00 82 1009.9